Blue Ridge Airport

Jump to: basic info | weather | frequencies | runways | comments

Related pages: nearby airports | nearby navaids | notams | map

Basic information (top)

Codes: KMTV MTV
Location: lon 36.630699, lat -80.018303, elev 941 ft / 287 m msl
Status: small_airport

Weather (top)

Current conditions (rec'd 2015/03/01 11:55Z):

KMTV 011155Z AUTO 00000KT 10SM OVC024 M02/M05 A3062 RMK AO2 T10161054 11013 21035

Airport forecast for Smith Reynolds Airport 31nm (58km) SSW (rec'd 2015/03/01 12:42Z):

TAF KINT 011137Z 0112/0212 VRB03KT 6SM -FZRA BR OVC018 
     FM011400 VRB03KT 5SM -FZRA BR OVC010 WS018/16025KT 
     FM011800 03006KT 3SM -RA BR OVC005 
     FM012200 VRB03KT 2SM -DZ BR OVC005

Frequencies (top)

Verify before use: may be inaccurate or out of date.

A/D: 124.35 MHz (GREENSBORO APP/DEP)
AWOS: 118.45 MHz (AWOS 3)
CLD: 124.85 MHz (CLNC DEL)
UNIC: 122.7 MHz (CTAF/UNICOM)

Runways (top)

12/30: 5,002 x 100 ft (1,525 x 30 m) — paved — lighted

Latest comments (top)

Runway Cafe: Great little place to eat right next to ... [read]

More... (top)

See also NOTAMs and nearby airports and navaids, or visit the Blue Ridge Airport page at the main OurAirports website..